Theta_e
317 310 307 307 299 296 292 295 298 297 296 303 307 307 307 307 308 303 324 328 332 337 340 341 344 346 345 345 344 344 343 343 342 341 341 340 339 338 337 335 334 332 332 330 329 328 327 326 325
310 311 306 300 293 290 291 295 297 298 303 308 303 303 304 303 312 318 322 327 331 336 340 341 342 345 344 343 342 342 341 340 339 337 337 335 334 333 331 330 329 328 327 327 326 324 323 322 321
307 307 300 295 289 288 291 294 296 298 301 300 300 302 303 306 313 317 323 329 331 333 337 339 341 342 342 340 340 339 338 337 335 333 332 331 329 328 327 326 325 324 324 323 323 321 320 319 319
301 300 297 291 288 291 291 294 297 296 298 301 302 300 304 312 313 319 327 328 327 329 334 336 339 339 338 338 337 336 335 333 331 330 328 327 326 324 323 323 322 321 320 320 320 319 318 317 317
299 295 289 288 288 291 292 294 296 295 295 296 298 296 302 314 319 322 324 325 324 326 329 332 335 335 335 335 333 332 331 329 327 326 324 323 322 321 320 319 319 319 318 318 317 317 317 317 316
294 291 285 285 285 289 291 290 292 293 294 295 298 297 300 312 316 321 323 323 323 321 323 325 326 330 330 330 329 328 327 325 323 322 321 319 317 317 316 316 316 316 316 316 316 315 314 314 314
291 288 284 283 285 287 290 291 290 291 293 294 299 295 300 310 315 321 321 321 318 318 317 316 316 318 323 326 326 324 322 320 318 316 314 312 311 312 313 313 314 314 315 315 314 312 311 311 311
294 289 284 283 284 286 289 291 292 292 293 296 296 295 296 307 315 320 318 317 316 315 315 313 312 312 313 314 318 319 317 315 314 312 310 309 308 308 308 308 310 311 312 312 311 310 309 308 308
293 286 282 283 285 285 290 289 291 291 293 294 301 297 303 312 314 312 310 310 311 312 311 311 310 309 309 309 310 313 313 311 310 307 306 301 297 297 299 306 307 308 308 308 308 308 306 304 303
288 283 285 286 285 285 289 288 288 289 290 292 299 305 308 311 310 307 305 305 305 305 306 309 308 307 305 306 306 305 304 303 302 301 300 300 297 299 298 300 303 304 303 304 305 305 302 297 292
288 285 288 287 288 288 288 287 288 287 287 291 296 303 304 305 306 306 304 305 305 305 304 304 306 304 300 301 303 300 300 301 301 300 300 298 296 294 294 293 292 292 297 292 294 293 292 292 292
286 289 289 290 289 288 286 288 286 286 289 292 296 306 305 304 304 304 303 303 302 302 302 302 301 299 298 300 298 297 297 298 298 299 298 295 294 293 293 292 292 291 292 291 291 291 292 291 292
286 287 289 289 289 287 289 285 285 286 287 299 305 305 304 304 304 304 304 302 301 299 300 300 299 296 297 297 296 295 295 295 294 295 296 294 292 292 292 291 291 291 291 291 291 290 291 291 292
288 288 287 289 289 289 286 284 286 285 288 299 303 303 303 304 304 303 303 302 299 298 298 298 297 297 297 296 295 294 294 294 294 293 294 294 292 291 291 291 291 290 290 290 290 290 289 290 291
288 284 286 288 289 288 288 285 283 285 288 294 299 300 301 302 302 304 304 304 302 298 298 297 296 297 296 295 295 294 294 294 293 293 293 293 293 291 290 290 290 289 290 290 290 289 289 289 290
284 283 279 286 288 288 287 282 286 286 285 286 287 288 291 291 291 291 294 303 304 298 297 297 300 297 296 295 294 294 294 293 292 292 292 293 293 291 290 290 289 290 290 289 288 288 288 288 288
284 278 280 283 287 286 285 282 287 287 287 285 286 287 289 290 292 293 294 293 301 299 297 297 297 296 296 295 294 293 293 293 292 292 292 292 293 293 290 290 289 289 289 288 288 288 287 287 288
281 280 283 282 285 284 282 283 283 285 285 284 284 286 287 289 291 294 295 295 294 297 296 296 296 296 295 294 293 292 292 292 292 291 292 293 293 292 290 289 289 289 288 287 287 287 288 287 287
284 282 281 284 285 282 280 281 283 283 282 282 283 285 286 288 290 293 294 294 296 295 295 295 295 294 294 292 291 291 291 291 291 292 293 293 292 293 290 289 289 288 287 287 287 287 286 286 287
284 281 280 283 284 281 280 281 282 283 283 283 284 284 285 287 289 291 293 293 293 294 294 294 295 294 294 293 292 292 291 291 292 293 293 293 293 293 292 290 289 287 287 287 286 286 286 285 286
281 281 279 280 281 281 278 278 279 282 283 283 283 284 285 286 287 289 291 290 291 291 292 294 295 294 294 294 293 291 291 291 291 291 292 293 294 293 293 291 289 288 287 286 286 286 286 284 285
281 281 281 279 275 272 277 270 277 279 280 282 282 282 283 283 287 288 288 289 289 289 292 294 294 294 295 294 292 291 290 289 290 290 291 292 292 292 292 292 290 288 287 286 286 288 286 285 283
280 281 280 278 272 271 271 265 273 277 277 279 280 281 282 283 284 285 286 287 288 288 289 292 293 293 293 293 292 290 290 290 290 290 289 289 290 291 291 291 289 288 287 287 286 286 286 286 285
281 279 278 276 269 263 264 266 271 275 278 278 280 281 282 283 283 284 285 286 286 286 287 288 289 289 290 290 290 290 289 289 288 288 287 288 288 289 290 291 289 289 288 287 287 286 286 286 285
279 271 265 264 265 266 260 267 275 278 279 279 280 280 281 282 282 283 283 283 284 284 285 287 287 286 287 287 287 287 287 287 286 286 286 286 287 287 288 289 289 288 288 288 287 286 286 286 284
276 270 265 259 262 266 260 266 275 277 279 279 281 281 282 282 283 283 282 283 282 282 282 283 284 284 285 285 285 285 285 285 285 285 285 285 285 286 288 288 288 288 289 288 287 286 286 285 285
275 267 274 261 254 259 266 270 276 278 275 277 279 280 281 281 282 282 282 281 281 280 281 281 282 282 283 283 282 283 283 283 283 283 284 284 284 286 286 286 286 287 287 287 287 286 285 285 285
275 276 267 264 261 257 262 258 271 270 272 275 278 278 279 281 281 281 281 281 282 280 280 280 281 281 281 282 281 282 282 282 282 282 282 282 283 284 284 284 284 285 286 286 286 285 286 284 285
270 268 269 268 268 262 259 267 271 270 268 274 276 279 278 278 280 281 281 281 282 282 280 280 280 281 281 281 281 281 281 281 281 281 281 282 282 283 283 283 283 284 284 285 284 284 285 284 285
275 272 274 267 263 265 265 269 269 266 265 264 271 276 274 273 277 277 280 280 281 281 279 279 280 280 281 281 281 281 281 281 280 280 281 281 281 282 282 282 282 283 283 283 283 283 284 284 284
Wind_Speed
9 8 1 4 4 5 2 4 2 3 2 4 4 3 6 4 2 3 0 4 4 2 4 6 13 16 17 18 17 17 18 18 16 16 16 16 15 14 14 13 14 14 13 14 14 14 14 15 15
5 5 5 3 4 2 4 3 3 1 4 7 5 2 7 2 2 2 1 5 5 4 7 8 12 16 17 17 17 17 17 16 16 14 14 14 14 13 13 14 13 13 13 13 13 14 14 14 15
5 3 4 4 3 5 4 2 2 2 5 3 4 6 2 2 2 2 1 4 6 7 8 8 14 16 15 17 16 16 17 16 15 14 14 14 13 14 13 13 12 13 14 13 13 13 13 14 14
4 5 5 4 4 5 4 4 4 2 1 4 4 7 3 1 2 4 5 6 9 7 9 8 15 17 16 16 16 16 17 16 15 15 15 14 13 13 13 13 13 13 13 14 13 13 13 14 15
4 3 4 0 3 3 5 3 4 0 1 3 1 4 2 2 5 7 8 7 9 8 9 9 13 14 15 14 14 15 16 15 15 14 14 13 13 12 13 13 12 13 13 13 13 14 14 14 14
4 3 4 3 3 3 3 3 1 2 2 2 5 4 2 2 4 7 8 8 8 8 8 9 11 12 12 12 13 13 14 14 14 13 14 13 12 12 12 12 12 12 13 12 13 14 14 14 14
6 4 4 3 2 1 2 4 3 1 2 3 6 5 0 3 4 7 8 8 8 8 8 7 7 10 13 12 11 12 12 13 14 13 13 13 13 12 12 12 11 11 12 12 12 13 13 13 14
5 4 4 2 4 3 3 2 2 2 1 2 1 4 5 6 7 8 7 7 7 6 6 6 6 6 7 6 12 11 11 12 13 12 12 11 11 10 10 9 10 11 11 12 12 13 13 13 13
3 5 1 3 4 1 4 1 2 1 4 3 3 1 2 10 9 7 6 4 4 5 5 4 5 5 5 6 5 8 11 8 10 9 10 7 4 4 6 8 10 11 11 12 12 12 13 12 12
5 3 5 1 1 1 4 2 5 2 1 1 2 5 7 11 10 9 6 6 4 4 4 4 4 5 4 5 3 4 4 3 4 4 5 3 4 4 5 7 10 11 11 12 12 13 12 9 4
2 4 3 2 1 1 4 2 4 2 3 4 5 7 5 7 6 8 6 6 7 4 3 4 4 4 4 4 2 2 2 3 3 4 4 4 3 4 3 3 3 4 8 4 6 6 4 6 5
3 2 1 0 1 2 2 5 3 3 2 4 4 9 6 7 8 8 7 7 6 6 6 5 5 4 3 3 2 2 2 2 2 3 4 3 3 3 3 3 4 4 3 5 5 3 5 6 6
2 1 2 1 3 1 4 2 3 4 2 5 9 7 8 7 6 4 5 5 5 6 5 6 6 5 4 4 2 2 2 2 2 2 3 2 3 3 2 3 3 3 4 4 4 4 4 5 6
2 2 2 3 4 3 3 3 3 1 3 5 7 7 6 7 8 4 5 7 7 6 7 6 6 5 5 4 3 3 2 2 2 2 2 4 3 2 3 3 4 4 4 4 4 4 5 4 5
3 3 3 3 5 3 2 3 3 2 3 5 4 4 5 6 3 8 6 7 9 6 6 8 7 6 6 5 4 3 2 2 2 1 2 2 2 3 2 2 3 3 3 5 4 4 4 4 5
4 4 2 2 6 3 3 5 4 6 3 4 3 1 3 3 3 3 5 7 7 5 9 7 6 6 5 4 3 3 2 2 1 1 0 1 1 2 2 2 2 3 3 3 4 4 4 4 4
6 2 3 2 3 4 2 4 5 7 5 5 4 4 3 3 4 5 7 6 6 9 8 8 7 7 6 5 3 3 3 2 2 1 2 2 0 1 1 1 2 3 3 3 3 3 3 4 5
3 1 2 2 5 4 2 4 2 5 3 4 3 3 3 4 5 7 8 7 6 6 6 5 5 6 5 4 3 2 0 1 1 2 2 3 2 1 1 2 3 3 3 3 3 2 3 2 4
2 2 2 1 2 3 2 5 5 1 3 3 2 1 2 5 5 6 7 8 7 4 7 7 7 6 5 2 2 0 2 2 2 2 4 3 3 2 1 1 2 2 2 2 3 3 4 3 5
5 2 3 4 4 2 5 9 7 5 4 5 5 3 2 4 6 7 8 7 7 2 4 6 6 6 4 2 2 2 1 1 2 1 3 3 3 3 3 2 3 2 2 3 3 3 3 2 4
3 2 3 3 7 3 7 7 4 3 2 2 1 2 1 0 3 5 7 7 7 7 2 5 6 6 3 3 2 2 2 1 2 1 2 2 4 4 4 3 3 3 2 2 1 1 0 2 2
1 2 1 2 4 3 4 7 6 6 7 5 5 4 3 1 2 3 5 6 7 6 4 4 4 4 3 4 2 2 2 1 1 1 2 4 4 4 4 4 4 4 3 3 3 2 2 2 2
1 3 2 2 4 5 4 5 10 1 7 9 8 7 5 3 2 3 4 4 5 6 6 6 7 6 4 3 2 1 1 1 1 2 4 4 4 4 5 5 5 5 3 4 5 3 4 3 2
1 2 6 4 4 4 3 4 9 6 7 4 4 7 6 5 3 2 2 4 5 6 6 6 7 6 6 5 5 4 3 2 3 3 4 4 3 4 5 5 5 5 5 5 5 5 5 4 4
6 7 5 8 6 7 3 1 13 5 5 4 9 8 7 5 2 0 3 4 5 6 6 5 6 6 6 6 6 6 4 4 3 4 3 5 4 3 5 5 5 4 5 5 5 5 6 5 4
3 6 7 5 2 7 2 8 9 2 6 3 6 7 6 6 4 4 3 2 3 5 5 6 6 5 6 6 6 5 5 3 2 3 3 3 3 4 5 5 5 6 6 5 5 4 5 5 5
2 3 3 8 2 4 4 10 9 4 4 1 6 7 8 7 6 6 4 3 2 3 4 4 5 4 5 5 5 5 4 5 4 5 4 3 4 5 6 6 6 6 6 6 5 5 7 5 6
4 2 5 5 1 7 6 7 9 7 8 5 8 9 9 8 8 7 6 5 3 2 1 2 2 2 2 2 3 3 4 4 4 4 5 5 5 5 6 6 6 7 6 6 5 5 6 6 7
2 2 4 3 4 5 4 8 9 8 5 11 11 10 8 8 8 7 5 3 3 2 1 1 1 2 3 3 3 4 4 5 5 5 5 5 5 5 6 6 7 6 7 6 5 6 8 7 9
2 6 6 6 8 5 2 11 3 5 5 4 7 8 6 6 8 6 6 5 5 5 3 2 2 3 3 3 4 5 5 5 5 5 6 5 6 6 6 6 6 6 6 7 7 8 8 8 9
Wind_Direction
327 315 3 35 55 68 260 258 281 95 56 336 356 84 110 43 68 181 293 3 347 89 100 111 125 117 108 102 100 98 96 86 73 75 73 68 68 67 65 65 61 59 56 51 49 44 39 33 28
322 331 43 66 90 87 272 282 253 113 139 137 69 31 40 78 63 131 135 355 9 60 94 95 101 103 103 102 97 95 96 96 90 79 75 76 72 69 67 61 59 57 56 51 45 45 42 36 30
330 23 77 89 105 172 214 277 198 148 162 173 101 42 69 112 52 105 345 53 43 44 72 97 100 100 102 101 101 100 96 94 95 93 84 75 70 66 62 61 56 54 51 48 45 42 40 37 36
18 14 31 92 205 258 211 220 194 178 135 80 124 73 68 329 181 148 107 65 70 48 78 66 94 102 101 100 100 101 99 94 91 87 83 75 68 65 61 57 50 49 50 47 42 42 35 34 34
35 62 74 23 246 266 273 311 151 52 31 49 67 164 55 25 96 112 108 86 78 57 62 69 86 91 94 98 100 99 102 100 92 87 82 80 73 66 64 55 50 46 42 42 39 35 38 33 30
46 92 77 218 259 279 301 11 331 27 32 106 78 103 171 131 117 119 107 96 73 74 60 64 60 67 89 100 102 101 100 96 93 89 83 76 70 64 60 55 49 44 42 36 38 35 34 29 29
110 88 194 192 216 234 230 322 81 110 78 12 136 102 83 192 182 125 111 98 86 78 72 62 64 61 62 68 86 98 99 100 95 90 86 79 71 63 57 47 48 44 39 37 36 32 30 30 24
99 85 133 225 199 201 332 20 91 91 140 109 81 187 204 204 168 124 105 98 90 89 90 82 69 64 63 67 73 84 95 99 97 90 84 77 66 58 52 38 42 39 39 37 31 29 23 25 23
105 59 214 212 160 208 349 134 7 261 112 47 10 202 288 129 127 103 98 80 95 103 101 93 92 88 85 81 80 82 90 89 88 87 84 69 61 50 38 39 44 41 35 32 28 24 23 21 15
84 120 219 226 266 299 327 23 332 6 27 25 44 26 78 124 136 137 150 149 148 154 142 133 123 122 115 113 94 78 82 67 65 70 69 69 63 54 56 32 39 34 31 26 23 18 17 13 3
156 179 170 214 297 343 322 327 325 134 257 221 192 156 119 127 145 155 167 174 176 170 167 164 152 142 129 118 106 70 65 73 68 70 73 60 55 38 34 31 16 14 16 14 14 10 10 2 357
97 49 171 164 2 338 289 313 299 283 284 325 199 145 135 153 168 171 173 179 167 177 186 179 174 160 145 117 104 97 79 67 69 53 70 64 52 34 28 30 16 18 5 8 10 2 352 354 349
71 148 45 333 14 359 321 296 284 291 0 53 112 133 159 168 178 188 183 180 173 189 193 193 176 178 155 137 119 114 121 97 99 65 64 80 64 48 25 25 19 15 358 9 1 356 355 344 342
86 69 29 355 2 337 2 305 21 290 92 98 139 178 183 189 201 196 199 196 191 198 194 188 191 180 155 155 161 163 144 133 101 72 60 65 73 56 36 19 10 6 1 352 355 351 347 337 337
97 45 350 11 344 319 14 317 257 350 118 146 198 219 220 237 232 231 240 220 193 201 188 190 185 174 168 167 163 151 163 123 111 95 69 92 92 72 58 25 1 350 351 355 356 349 340 342 338
50 44 8 333 1 3 59 276 26 352 151 148 173 202 128 77 57 5 334 242 218 187 186 176 181 174 167 161 145 131 122 121 163 183 209 183 114 98 62 24 355 345 357 2 353 349 338 345 342
13 204 213 324 53 316 164 261 358 345 123 155 109 91 86 35 8 350 335 328 233 202 175 178 177 177 167 145 120 109 129 176 206 215 233 258 277 82 76 7 335 360 7 9 353 337 358 332 337
272 303 264 269 336 347 309 265 336 359 95 148 112 79 53 18 356 341 340 332 306 199 176 160 158 159 138 107 89 68 33 270 247 250 257 263 262 271 34 349 351 9 4 358 357 339 326 311 323
309 293 310 320 35 348 330 279 287 111 86 149 164 281 353 1 333 352 350 341 351 159 155 165 159 161 144 124 122 123 234 252 279 254 258 251 250 265 285 319 333 351 358 346 346 333 354 332 334
36 33 323 290 14 5 3 280 261 199 214 203 202 230 330 349 349 354 358 1 358 303 181 153 161 166 171 136 148 137 163 241 254 276 264 250 251 256 249 254 278 292 317 337 352 20 342 323 11
45 30 350 257 326 59 337 291 238 215 171 166 166 192 192 64 7 354 3 2 6 16 327 172 167 168 162 149 96 62 48 22 354 323 311 294 259 257 247 253 251 267 231 271 274 279 66 335 327
169 319 306 357 46 254 23 277 285 224 225 218 211 219 197 150 47 21 15 9 6 0 29 113 130 142 149 156 155 156 171 217 252 300 314 324 332 295 275 267 257 258 248 254 248 207 197 148 265
146 38 42 71 77 39 354 63 270 44 249 232 219 213 209 194 143 59 30 16 4 13 31 67 87 78 79 101 107 130 206 249 316 322 338 335 326 313 291 272 271 263 245 249 242 246 213 194 192
33 46 38 56 82 16 291 114 279 197 215 203 195 202 200 190 169 104 50 44 27 21 38 52 72 61 62 75 66 73 59 355 351 335 332 327 314 316 315 302 274 260 256 248 244 244 236 230 224
60 47 335 355 10 227 308 320 244 294 279 233 194 192 199 202 190 71 66 55 52 48 47 57 59 49 34 50 51 46 42 35 6 345 331 332 330 326 318 323 310 286 259 247 235 235 232 223 214
68 132 148 227 298 272 359 244 254 280 321 312 161 164 182 199 197 184 150 100 65 51 44 53 55 54 41 42 31 30 37 29 14 352 331 322 309 308 307 317 312 302 287 267 242 235 238 222 230
272 57 153 103 42 38 249 293 309 6 329 115 159 172 201 206 199 190 180 170 119 62 42 37 42 37 29 19 16 19 16 13 349 339 330 315 311 315 321 320 315 308 298 280 259 243 248 223 233
132 158 41 2 329 288 294 287 250 293 249 233 214 210 215 211 205 202 192 192 198 153 80 47 27 9 338 5 14 3 343 342 332 327 323 317 305 310 315 317 313 309 302 293 275 257 252 231 244
28 343 40 125 144 197 284 257 214 227 235 223 229 224 221 213 207 206 215 240 255 247 244 315 345 337 331 342 338 340 328 327 325 316 312 310 305 304 304 308 308 306 305 301 281 262 265 250 257
201 204 165 129 263 240 202 260 37 217 239 244 268 248 240 224 222 217 223 229 230 229 238 263 286 296 292 298 311 314 317 321 317 311 310 311 304 303 293 298 293 294 293 294 289 285 279 264 261